| time (UTC) | temp F | wind direction | speed MPH | gust MPH | rain 1hr in | rain 24hr in | rain mn in | humidity % | barometer mb |
| 20260507080027 | 49 | 156 | 0.0 | 6.0 | 0.00 | 0.00 | 0.00 | 28 | 1016.6 |
| 20260507074625 | 49 | 177 | 1.0 | 3.0 | 0.00 | 0.00 | 0.00 | 29 | 1016.5 |
| 20260507073124 | 49 | 262 | 0.0 | 3.0 | 0.00 | 0.00 | 0.00 | 34 | 1016.6 |
| 20260507071524 | 48 | 219 | 0.0 | 3.0 | 0.00 | 0.00 | 0.00 | 34 | 1016.6 |
| 20260507070018 | 48 | 171 | 0.0 | 2.0 | 0.00 | 0.00 | 0.00 | 36 | 1016.6 |
| 20260507064515 | 46 | 146 | 0.0 | 3.0 | 0.00 | 0.00 | 0.00 | 38 | 1016.6 |
| 20260507063015 | 46 | 74 | 1.0 | 4.0 | 0.00 | 0.00 | 0.00 | 42 | 1016.6 |
| 20260507061511 | 45 | 84 | 0.0 | 3.0 | 0.00 | 0.00 | 0.00 | 46 | 1016.6 |
| 20260507060014 | 44 | 115 | 1.0 | 3.0 | 0.00 | 0.00 | 0.00 | 47 | 1016.6 |
| 20260507054504 | 42 | 112 | 0.0 | 3.0 | 0.00 | 0.00 | 0.00 | 54 | 1016.5 |
| 20260507053108 | 40 | 67 | 1.0 | 4.0 | 0.00 | 0.00 | 0.00 | 57 | 1016.6 |
| 20260507051559 | 38 | 61 | 1.0 | 4.0 | 0.00 | 0.00 | 0.00 | 63 | 1016.4 |
| 20260507050055 | 33 | 56 | 1.0 | 3.0 | 0.00 | 0.00 | 0.00 | 73 | 1016.4 |
| 20260507044554 | 30 | 34 | 1.0 | 3.0 | 0.00 | 0.00 | 0.00 | 74 | 1016.5 |
| 20260507043043 | 28 | 296 | 0.0 | 0.0 | 0.00 | 0.00 | 0.00 | 75 | 1016.5 |
| 20260507041552 | 26 | 294 | 0.0 | 0.0 | 0.00 | 0.00 | 0.00 | 78 | 1016.6 |
| 20260507040043 | 24 | 294 | 0.0 | 0.0 | 0.00 | 0.00 | 0.00 | 81 | 1016.5 |
| 20260507034540 | 23 | 294 | 0.0 | 0.0 | 0.00 | 0.00 | 0.00 | 83 | 1016.5 |
| 20260507033041 | 22 | 178 | 0.0 | 0.0 | 0.00 | 0.00 | 0.00 | 84 | 1016.4 |
| 20260507031541 | 21 | 178 | 0.0 | 0.0 | 0.00 | 0.00 | 0.00 | 84 | 1016.4 |
| 20260507030037 | 20 | 178 | 0.0 | 0.0 | 0.00 | 0.00 | 0.00 | 85 | 1016.3 |
| 20260507024537 | 20 | 177 | 0.0 | 0.0 | 0.00 | 0.00 | 0.00 | 84 | 1016.3 |
| 20260507023033 | 20 | 177 | 0.0 | 0.0 | 0.00 | 0.00 | 0.00 | 83 | 1016.4 |
| 20260507021536 | 20 | 178 | 0.0 | 0.0 | 0.00 | 0.00 | 0.00 | 82 | 1016.3 |
| 20260507020030 | 20 | 177 | 0.0 | 0.0 | 0.00 | 0.00 | 0.00 | 82 | 1016.1 |
| 20260507014530 | 21 | 198 | 0.0 | 2.0 | 0.00 | 0.00 | 0.00 | 82 | 1016.1 |
| 20260507013026 | 21 | 198 | 0.0 | 2.0 | 0.00 | 0.00 | 0.00 | 81 | 1016.1 |
| 20260507011526 | 22 | 198 | 1.0 | 2.0 | 0.00 | 0.00 | 0.00 | 80 | 1016.0 |
| 20260507010032 | 21 | 198 | 1.0 | 2.0 | 0.00 | 0.00 | 0.00 | 81 | 1016.1 |
| 20260507004523 | 22 | 198 | 0.0 | 3.0 | 0.00 | 0.00 | 0.00 | 81 | 1016.0 |
| 20260507003022 | 22 | 309 | 0.0 | 0.0 | 0.00 | 0.00 | 0.00 | 80 | 1015.7 |
| 20260507001520 | 21 | 309 | 0.0 | 0.0 | 0.00 | 0.00 | 0.00 | 81 | 1015.8 |
| 20260507000025 | 22 | 309 | 0.0 | 0.0 | 0.00 | 0.00 | 0.00 | 79 | 1015.6 |
| 20260506234516 | 23 | 309 | 0.0 | 0.0 | 0.00 | 0.00 | 0.00 | 78 | 1015.7 |
| 20260506233016 | 23 | 309 | 0.0 | 0.0 | 0.00 | 0.00 | 0.00 | 78 | 1015.6 |
| 20260506231518 | 23 | 309 | 0.0 | 0.0 | 0.00 | 0.00 | 0.00 | 77 | 1015.5 |
| 20260506230012 | 23 | 309 | 0.0 | 0.0 | 0.00 | 0.00 | 0.00 | 76 | 1015.5 |
| 20260506224509 | 24 | 309 | 0.0 | 0.0 | 0.00 | 0.00 | 0.00 | 75 | 1015.4 |
| 20260506223008 | 25 | 309 | 0.0 | 0.0 | 0.00 | 0.00 | 0.00 | 74 | 1015.3 |
| 20260506221506 | 24 | 309 | 0.0 | 0.0 | 0.00 | 0.00 | 0.00 | 74 | 1015.3 |
| 20260506220005 | 25 | 309 | 0.0 | 0.0 | 0.00 | 0.00 | 0.00 | 73 | 1015.2 |
| 20260506214503 | 25 | 309 | 0.0 | 0.0 | 0.00 | 0.00 | 0.00 | 74 | 1015.2 |
| 20260506213102 | 27 | 309 | 0.0 | 0.0 | 0.00 | 0.00 | 0.00 | 71 | 1015.1 |
| 20260506211558 | 27 | 309 | 0.0 | 0.0 | 0.00 | 0.00 | 0.00 | 71 | 1015.0 |
| 20260506210055 | 28 | 309 | 0.0 | 0.0 | 0.00 | 0.00 | 0.00 | 68 | 1014.9 |
| 20260506204556 | 28 | 309 | 0.0 | 0.0 | 0.00 | 0.00 | 0.00 | 68 | 1014.9 |
| 20260506203054 | 28 | 309 | 0.0 | 0.0 | 0.00 | 0.00 | 0.00 | 67 | 1014.9 |
| 20260506201554 | 28 | 309 | 0.0 | 0.0 | 0.00 | 0.00 | 0.00 | 67 | 1014.9 |
| 20260506200055 | 29 | 309 | 0.0 | 0.0 | 0.00 | 0.00 | 0.00 | 65 | 1015.0 |
| 20260506194553 | 30 | 309 | 0.0 | 1.0 | 0.00 | 0.00 | 0.00 | 65 | 1014.9 |
| 20260506193055 | 31 | 309 | 0.0 | 0.0 | 0.00 | 0.00 | 0.00 | 61 | 1014.9 |
| 20260506191558 | 32 | 309 | 0.0 | 3.0 | 0.00 | 0.00 | 0.00 | 61 | 1014.8 |
| 20260506190052 | 33 | 309 | 1.0 | 2.0 | 0.00 | 0.00 | 0.00 | 57 | 1014.8 |
| 20260506184555 | 35 | 309 | 2.0 | 4.0 | 0.00 | 0.00 | 0.00 | 55 | 1014.7 |
| 20260506183100 | 37 | 309 | 2.0 | 3.0 | 0.00 | 0.00 | 0.00 | 52 | 1014.6 |
| 20260506181601 | 39 | 309 | 1.0 | 3.0 | 0.00 | 0.00 | 0.00 | 44 | 1014.6 |
| 20260506180048 | 41 | 314 | 2.0 | 3.0 | 0.00 | 0.00 | 0.00 | 39 | 1014.5 |
| 20260506174548 | 42 | 314 | 1.0 | 2.0 | 0.00 | 0.00 | 0.00 | 35 | 1014.5 |
| 20260506173113 | 43 | 314 | 1.0 | 3.0 | 0.00 | 0.00 | 0.00 | 34 | 1014.3 |
| 20260506171546 | 43 | 314 | 2.0 | 4.0 | 0.00 | 0.00 | 0.00 | 33 | 1014.3 |
| 20260506164544 | 45 | 317 | 3.0 | 6.0 | 0.00 | 0.00 | 0.00 | 31 | 1014.3 |
| 20260506163053 | 46 | 319 | 1.0 | 5.0 | 0.00 | 0.00 | 0.00 | 29 | 1014.2 |
| 20260506161544 | 47 | 309 | 1.0 | 5.0 | 0.00 | 0.00 | 0.00 | 30 | 1014.1 |
| 20260506160046 | 48 | 309 | 4.0 | 10.0 | 0.00 | 0.00 | 0.00 | 32 | 1014.1 |
| 20260506154604 | 48 | 322 | 2.0 | 8.0 | 0.00 | 0.00 | 0.00 | 29 | 1014.1 |
| 20260506153043 | 49 | 286 | 2.0 | 5.0 | 0.00 | 0.00 | 0.00 | 27 | 1014.1 |
| 20260506151543 | 50 | 290 | 2.0 | 9.0 | 0.00 | 0.00 | 0.00 | 28 | 1014.0 |
| 20260506150043 | 50 | 294 | 3.0 | 8.0 | 0.00 | 0.00 | 0.00 | 27 | 1014.2 |
| 20260506144551 | 50 | 300 | 2.0 | 6.0 | 0.00 | 0.00 | 0.00 | 24 | 1014.2 |
| 20260506143042 | 51 | 286 | 3.0 | 6.0 | 0.00 | 0.00 | 0.00 | 26 | 1014.2 |
| 20260506141541 | 52 | 338 | 5.0 | 12.0 | 0.00 | 0.00 | 0.00 | 26 | 1014.1 |
| 20260506140041 | 52 | 294 | 3.0 | 11.0 | 0.00 | 0.00 | 0.00 | 26 | 1014.2 |
| 20260506134540 | 52 | 305 | 4.0 | 12.0 | 0.00 | 0.00 | 0.00 | 29 | 1014.2 |
| 20260506133055 | 51 | 333 | 5.0 | 10.0 | 0.00 | 0.00 | 0.00 | 26 | 1014.1 |
| 20260506131539 | 52 | 310 | 3.0 | 10.0 | 0.00 | 0.00 | 0.00 | 28 | 1014.0 |
| 20260506130040 | 52 | 299 | 2.0 | 10.0 | 0.00 | 0.00 | 0.00 | 32 | 1014.1 |
| 20260506124538 | 52 | 292 | 7.0 | 13.0 | 0.00 | 0.00 | 0.00 | 28 | 1013.9 |
| 20260506123037 | 53 | 323 | 4.0 | 12.0 | 0.00 | 0.00 | 0.00 | 29 | 1013.9 |
| 20260506121536 | 53 | 315 | 3.0 | 13.0 | 0.00 | 0.00 | 0.00 | 30 | 1013.9 |
| 20260506120036 | 52 | 323 | 8.0 | 17.0 | 0.00 | 0.00 | 0.00 | 28 | 1013.8 |
| 20260506114539 | 54 | 296 | 3.0 | 7.0 | 0.00 | 0.00 | 0.00 | 30 | 1013.8 |
| 20260506113034 | 54 | 294 | 4.0 | 13.0 | 0.00 | 0.00 | 0.00 | 28 | 1013.8 |
| 20260506111532 | 53 | 319 | 6.0 | 13.0 | 0.00 | 0.00 | 0.00 | 31 | 1013.6 |
| 20260506110039 | 53 | 299 | 4.0 | 10.0 | 0.00 | 0.00 | 0.00 | 31 | 1013.7 |
| 20260506104554 | 52 | 308 | 3.0 | 10.0 | 0.00 | 0.00 | 0.00 | 30 | 1013.5 |
| 20260506103029 | 52 | 318 | 3.0 | 7.0 | 0.00 | 0.00 | 0.00 | 33 | 1013.5 |
| 20260506101532 | 52 | 317 | 4.0 | 11.0 | 0.00 | 0.00 | 0.00 | 30 | 1013.4 |
| 20260506100031 | 52 | 277 | 4.0 | 10.0 | 0.00 | 0.00 | 0.00 | 32 | 1013.4 |
| 20260506094532 | 53 | 309 | 5.0 | 13.0 | 0.00 | 0.00 | 0.00 | 30 | 1013.3 |
| 20260506093023 | 53 | 319 | 5.0 | 11.0 | 0.00 | 0.00 | 0.00 | 33 | 1013.2 |
| 20260506091522 | 51 | 291 | 4.0 | 8.0 | 0.00 | 0.00 | 0.00 | 36 | 1013.2 |
| 20260506090019 | 51 | 296 | 3.0 | 10.0 | 0.00 | 0.00 | 0.00 | 38 | 1013.1 |
| 20260506084519 | 49 | 298 | 3.0 | 9.0 | 0.00 | 0.00 | 0.00 | 38 | 1013.1 |
| 20260506083034 | 51 | 291 | 3.0 | 10.0 | 0.00 | 0.00 | 0.00 | 38 | 1013.0 |
| 20260506081516 | 50 | 303 | 3.0 | 7.0 | 0.00 | 0.00 | 0.00 | 39 | 1013.0 |